Regional Weather Roundup
Issued by NWS Charleston, SC

Current Version | Previous Version | Text Only | Print | Product List | Glossary Off
Versions: 1 2 3 4 5 6 7 8 9 10 11 12 13 14 15 16 17 18 19 20 21 22 23 24 25 26 27 28 29 30 31 32 33 34 35 36 37 38 39 40 41 42 43 44 45 46 47 48 49 50

000
ASUS42 KCHS 291725
RWRCHS

REGIONAL WEATHER ROUNDUP
NATIONAL WEATHER SERVICE CHARLESTON SC
100 PM EDT TUE JUL 29 2014

NOTE: "FAIR" INDICATES FEW OR NO CLOUDS BELOW 12,000 FEET WITH NO
SIGNIFICANT WEATHER AND/OR OBSTRUCTIONS TO VISIBILITY.

NOT ALL STATIONS ARE QUALITY CONTROLLED BY THE NATIONAL
WEATHER SERVICE. USE DATA WITH CAUTION...ESPECIALLY
DEWPOINT OBSERVATIONS.

SCZ027-030-031-034>040-042>050-291800-
...SOUTH CAROLINA...

CITY           SKY/WX    TMP DP  RH WIND       PRES   REMARKS
N CHARLESTON   MOSUNNY   87  63  44 N5        29.92F
WATERFRONT PRK   N/A     82 N/A N/A N6          N/A
FORT JOHNSON   NOT AVBL
MOUNT PLEASANT FAIR      86  66  51 CALM      29.92S
JOHNS ISLAND   SUNNY     86  66  51 CALM      29.92F
PINOPOLIS        N/A     82  64  54 N7        29.86S
MONCKS CORNER    N/A     84  68  58 NW3       29.93S
SUMMERVILLE    FAIR      86  64  48 NW3       29.94S
BEAUFORT MCAS  MOSUNNY   86  66  51 SE5       29.93S
BEAUFORT ARPT  FAIR      84  68  58 N3        29.92F
HILTON HEAD IS MOSUNNY   84  72  65 N7        29.94S
GEORGETOWN     NOT AVBL
WALTERBORO     SUNNY     88  57  35 CALM      29.93F
ORANGEBURG     MOSUNNY   84  58  40 CALM      29.95F
BARNWELL       FAIR      86  61  42 NW3       29.95F
AIKEN          FAIR      84  61  45 CALM      29.99F
MANNING        FAIR      86  63  45 CALM      29.93F
KINGSTREE      NOT AVBL
COLUMBIA       MOSUNNY   87  54  32 NW7       29.95F
SUMTER         SUNNY     82  60  46 VRB2      29.93F
FLORENCE       SUNNY     83  60  45 MISG      29.94F
MYRTLE BEACH   SUNNY     84  63  48 VRB7      29.91
N MYRTLE BEACH MOSUNNY   84  64  50 W6        29.91S

$$

GAZ063-065-086>088-099>101-113>116-118-119-134-136>141-150-291800-
...GEORGIA...

CITY           SKY/WX    TMP DP  RH WIND       PRES   REMARKS
SAVANNAH ARPT  MOSUNNY   88  66  48 N5        29.93F HX  90
HUNTER AAF     SUNNY     88  68  51 VRB2      29.90F HX  91
FORT STEWART   SUNNY     87  65  47 W8        29.92F
STATESBORO     NOT AVBL
SYLVANIA       SUNNY     85  68  56 CALM      29.94F
CLAXTON        FAIR      88  66  48 CALM      29.93F HX  90
THOMSON        MOSUNNY   84  66  54 NE3       30.01F
AUGUSTA-BUSH   SUNNY     84  60  44 VRB5      29.95F
AUGUSTA-DANIEL PTSUNNY   84  57  39 W7        29.97F
SWAINSBORO     FAIR      88  63  42 CALM      29.96F
VIDALIA          N/A     88  63  42 CALM      29.95F
ALMA           SUNNY     89  59  36 NW9       29.94F
WAYCROSS       SUNNY     94  62  34 N13       29.93F HX  95
JESUP          FAIR      91  61  35 W6        29.92F HX  91
BRUNSWICK      SUNNY     91  61  35 W8        29.92F HX  91
SAINT SIMONS   SUNNY     89  65  44 VRB3      29.92F HX  91

$$

SCZ027-028-034-036>038-045-046-048>050-GAZ119-141-291800-
...LAKE AND SUPPLEMENTAL COASTAL OBSERVATIONS...

STATION/POSITION TIME  TEMP    WIND        PRES    WAVE   SWELL
                       AIR SEA DIR/SP/G            HT/PER HT/PER/DIR
                 (UTC) (F)     (DEG/KT/KT) (MB)    (FT/S) (FT/S/D)
UPR LAKE MARION  NOT AVBL
WINYAH BAY       1700   81      80/  6     1013.0S
LAKE MURRAY      1700   80     260/  3/  8 1013.9S
ACE BASIN NERRS  1700   87      80/  2     1014.0S
FORT PULASKI     1700   83      80/  5/  7 1013.6F
SAPELO ISLAND    1700   89     230/  4     1014.0S

$$

ANZ835-935-AMZ111-154-330-350-352-354-374-450-454-472-291800-
...C-MAN AND BUOY OBSERVATIONS...

STATION/POSITION TIME  TEMP    WIND        PRES    WAVE   SWELL
                       AIR SEA DIR/SP/G            HT/PER HT/PER/DIR
                 (UTC) (F)     (DEG/KT/KT) (MB)    (FT/S) (FT/S/D)
FOLLY BEACH CMAN 1700   82      50/  6/  8 1013.7S
BUOY 41004       1700   81 84   20/ 10/ 12 1011.7S   4/ 5   3/ 5
BUOY 41008       1700   83 86  290/  2/  2 1013.0F   2/ 4   2/110/ 8
5E ST. MARYS GA  1700      86                N/A     1/ 9
FRYING PAN BUOY  NOT AVBL
BUOY 41025       1700          VRB 14/ 16  1012.3R   4/ 8   3/140/ 8
CAPE LOOKOUT NC  1700   78      40/ 12/ 14 1012.8R
BUOY 41002       1551   78 81  190/ 17/ 21 1014.2R   5/ 8   5/230/ 8
BUOY 41010       1700   83 84  290/ 12/ 14 1014.1F   5/ 6   3/270/ 6
BUOY 41012       NOT AVBL
ST AUGUSTINE FL  1700   87     300/  5/  8 1014.2F
CAPERS NEARSHORE 1600   81      60/ 10/ 12   N/A
FRIPP NEARSHORE  NOT AVBL


$$



USA.gov is the U.S. government's official web portal to all federal, state and local government web resources and services.